GFSNW_prec_cthk_132.txt.gz
RH
37 40 44 43 38 40 38 38 38 39 40 40 46 46 36 26 24 23 25 24 27 30 30 29 40 38 38 43 37 55 63 70 79 70 57 60 66 72 69 82 76 85 88 76
37 37 37 37 39 46 45 39 38 39 41 43 44 39 35 31 27 25 30 33 35 33 34 43 35 30 30 31 42 50 57 77 85 63 68 74 78 78 82 82 78 82 86 70
42 36 38 42 41 45 47 37 41 47 46 41 35 37 35 31 27 26 23 27 31 35 40 44 41 42 36 41 50 60 74 79 82 82 81 82 86 90 90 90 95 87 79 78
47 46 39 40 44 51 56 42 38 34 45 41 36 35 30 30 32 25 28 28 28 32 43 43 45 43 41 44 44 51 70 78 79 79 77 73 70 61 70 83 88 90 77 65
54 46 41 39 47 58 62 52 42 37 36 36 41 39 33 34 37 34 31 31 26 31 41 43 39 45 47 47 49 60 58 67 77 72 78 80 70 58 58 59 65 73 59 59
61 57 45 45 51 58 65 54 50 44 39 39 40 35 31 30 33 30 32 30 32 33 29 45 50 51 47 49 52 57 56 64 81 77 70 76 85 60 57 57 56 61 69 68
80 76 66 57 55 58 58 51 58 57 51 42 34 32 33 34 32 29 27 32 36 42 53 64 65 58 51 51 52 52 57 81 88 88 81 91 64 60 59 67 73 69 67 68
84 86 83 74 69 65 61 57 63 57 55 47 43 42 41 41 41 42 34 28 41 59 64 80 91 79 60 55 57 58 66 86 96 92 86 79 69 50 51 57 59 59 61 67
82 83 84 84 77 78 72 63 65 61 54 44 46 45 48 52 51 51 45 43 41 58 79 85 89 80 59 58 58 68 77 85 93 98 93 87 66 57 60 62 69 55 55 61
77 80 80 80 79 77 78 69 72 73 57 43 44 43 46 55 61 56 52 50 50 62 89 94 91 70 56 63 72 73 78 90 87 89 91 72 54 48 54 65 57 61 65 66
66 73 74 75 71 75 79 65 72 76 71 54 45 47 51 50 52 58 59 73 67 77 93 88 86 66 59 75 76 77 79 81 74 82 90 71 60 64 67 63 64 59 58 59
64 69 72 71 64 65 76 67 69 75 73 67 61 46 44 58 66 63 69 72 72 76 78 72 76 74 76 70 79 80 84 80 84 85 78 74 75 69 72 70 65 61 58 64
66 68 69 69 66 61 64 65 70 74 76 74 62 54 52 51 60 67 81 94 83 69 67 71 80 80 74 81 84 91 96 89 94 92 81 79 83 85 66 55 51 54 62 72
54 60 63 64 63 55 53 58 59 68 78 76 66 47 53 57 55 51 74 86 91 78 66 81 86 86 82 85 86 85 85 89 87 81 80 81 69 56 54 53 53 56 68 78
61 49 53 56 54 43 43 58 66 74 76 73 60 54 44 50 53 67 79 96 85 74 78 92 91 85 85 88 92 90 79 77 72 70 61 54 44 44 48 51 59 67 74 82
91 81 48 45 41 40 66 84 82 70 78 79 75 56 57 62 68 94 91 94 82 74 93 92 85 81 86 93 89 75 66 66 58 55 52 45 42 46 49 55 64 70 82 89
93 86 71 49 46 53 61 61 46 51 74 77 86 72 61 88 98 95 89 78 79 93 94 88 86 84 84 85 82 64 57 51 47 49 49 47 47 51 56 62 69 80 88 94
74 80 83 82 58 58 64 54 44 51 74 78 83 84 77 89 89 93 86 85 90 89 85 81 83 79 77 76 61 58 48 44 45 45 45 46 49 56 64 72 78 87 92 95
70 81 90 95 90 79 59 59 60 57 73 80 92 94 91 92 92 88 87 89 91 86 84 81 78 80 74 59 57 44 42 42 42 45 50 50 55 62 69 77 83 89 93 91
82 89 96 97 96 96 100 98 99 98 99 97 88 86 88 80 83 90 90 92 90 87 78 74 83 73 63 57 44 45 46 43 41 48 51 56 62 67 73 76 80 84 85 86
92 93 95 97 99 98 98 98 98 98 98 90 83 77 78 86 87 89 87 87 81 79 74 72 74 74 59 46 47 47 44 39 44 52 54 61 65 67 70 71 74 80 80 76
88 92 98 97 88 83 89 93 89 85 86 82 83 84 84 89 87 86 84 80 81 78 68 70 73 48 37 42 45 46 43 45 50 56 61 65 66 69 74 74 77 79 79 69
74 69 70 71 73 79 81 86 81 82 73 77 79 89 91 91 83 81 82 72 72 76 83 71 48 42 44 46 49 46 47 49 52 57 62 65 67 69 70 73 75 79 75 64
68 65 71 71 74 78 75 70 70 75 76 80 85 91 89 83 81 74 67 71 76 74 63 50 48 47 49 46 47 50 54 57 59 59 62 66 70 72 74 79 84 80 64 57
69 71 79 79 79 80 73 70 70 75 76 73 81 81 75 77 74 72 68 67 63 57 46 46 47 49 49 49 51 53 56 56 58 61 66 71 78 82 84 86 84 71 60 55
75 80 84 87 85 80 71 69 72 75 74 78 73 71 73 73 70 67 58 54 48 45 47 53 50 50 50 50 50 55 58 62 67 72 77 84 89 91 92 91 80 66 58 52
78 84 85 82 83 77 75 71 81 79 74 75 70 67 66 64 65 65 57 49 48 46 50 54 51 49 50 51 53 57 61 67 72 77 83 88 91 93 92 86 71 58 49 42

GFSNW_prec_cthk_138.txt.gz
RH
83 61 48 52 52 52 45 41 44 46 49 68 83 76 63 50 46 41 37 37 43 39 30 26 27 23 20 26 30 36 41 51 53 40 31 39 47 57 72 88 91 94 96 85
70 81 80 77 67 62 58 49 50 45 46 53 56 54 52 51 37 33 40 36 28 25 25 27 29 29 25 20 21 30 36 46 53 39 45 55 60 67 79 87 86 84 91 80
46 56 74 77 78 85 79 71 57 58 53 51 54 58 59 53 46 36 33 29 26 28 29 30 31 32 30 26 24 28 39 47 48 54 55 60 64 61 74 84 90 84 75 72
50 52 56 66 67 71 72 70 72 69 83 77 70 61 56 54 50 40 36 34 26 30 39 36 32 30 28 25 27 38 48 56 53 50 57 61 55 55 57 68 67 83 72 76
63 59 57 64 69 70 74 55 54 59 60 59 64 61 60 59 50 44 36 35 27 29 31 21 26 28 34 38 41 42 47 55 57 53 52 50 48 47 44 41 50 63 70 69
73 68 65 61 63 66 79 66 50 48 48 52 54 49 49 50 43 42 36 32 32 29 25 26 26 27 28 36 41 54 56 59 62 52 48 50 50 34 38 49 53 61 75 69
72 72 72 67 64 63 67 71 61 53 49 49 46 41 37 36 36 32 32 29 33 30 29 28 28 29 32 38 36 41 53 63 68 66 66 67 39 44 54 62 64 71 73 78
72 76 74 70 62 66 62 73 72 62 56 49 45 43 40 38 35 37 32 27 27 31 35 38 42 42 40 38 37 43 54 69 77 81 73 55 52 56 65 69 65 66 67 65
90 81 80 82 74 68 68 65 73 66 62 53 49 49 43 42 41 39 33 28 36 40 37 49 51 58 50 46 44 45 61 72 81 87 83 79 66 72 76 75 72 62 60 67
88 87 85 80 76 75 69 59 63 78 78 60 53 49 45 45 46 45 45 43 49 49 54 54 51 61 57 55 47 53 69 78 84 82 92 83 72 77 80 87 69 66 66 69
79 82 82 82 78 83 81 68 62 69 79 74 63 57 48 46 48 52 48 55 60 60 63 62 58 60 51 49 47 57 71 81 84 91 96 92 81 82 85 82 80 77 74 73
65 68 77 79 83 90 93 82 76 73 77 80 79 65 62 57 50 55 60 57 60 67 64 62 61 64 63 58 60 53 72 64 82 89 83 80 84 86 84 79 83 80 76 66
61 57 66 77 77 86 97 98 95 95 90 87 91 86 84 76 68 58 53 55 55 59 74 94 86 80 70 71 62 59 63 67 84 88 79 84 88 90 85 91 87 74 57 54
52 58 57 65 76 81 95 99 93 95 96 94 79 89 89 90 88 76 75 67 65 66 68 81 80 80 75 76 69 62 64 82 90 90 85 86 82 84 88 79 76 65 52 47
58 57 59 60 69 84 99 98 96 89 90 92 88 83 77 85 90 81 67 58 53 66 77 80 81 78 83 83 83 64 73 85 93 89 86 90 80 75 69 68 67 53 47 49
69 67 66 70 72 88 99 99 97 96 92 89 85 76 84 81 82 73 60 58 58 62 83 86 82 80 86 91 80 60 76 82 83 84 86 83 73 68 64 65 58 48 51 56
79 80 73 71 76 93 99 97 84 80 79 79 77 72 79 78 72 67 56 57 59 65 77 78 81 89 96 90 69 75 84 83 88 88 85 73 66 61 65 62 49 50 57 63
82 84 78 80 87 91 94 91 79 82 85 82 81 80 84 82 87 78 65 62 69 70 70 72 81 95 97 80 64 77 81 82 83 81 69 64 61 61 58 53 51 56 63 69
87 87 83 88 96 97 95 95 92 91 85 75 74 83 81 79 78 83 71 67 75 76 82 80 96 95 76 65 75 77 77 73 73 70 69 58 59 51 51 54 55 60 68 74
94 99 99 93 91 92 93 96 90 93 86 78 73 81 92 84 82 76 75 72 82 92 84 90 91 71 66 74 75 75 74 72 64 67 58 53 49 50 55 57 60 65 73 78
99 96 92 88 90 94 96 92 91 83 94 76 68 69 80 81 80 84 87 91 94 94 85 91 83 68 67 72 73 74 73 69 65 57 48 42 46 50 54 58 64 71 76 81
87 69 88 91 94 95 95 89 82 84 88 72 61 60 76 81 91 98 98 98 96 91 84 87 76 65 66 61 60 63 68 68 53 46 41 43 48 53 59 64 68 71 74 78
88 86 88 79 84 93 81 75 79 87 76 59 47 57 71 83 85 98 98 97 93 84 88 81 72 70 62 58 61 67 59 47 46 43 46 51 54 58 62 64 66 69 72 76
72 79 82 71 82 73 64 53 58 62 72 51 39 45 61 80 84 88 92 85 89 91 88 82 72 62 58 55 54 48 49 46 41 44 49 53 57 60 64 69 68 68 70 74
80 76 63 71 67 63 57 68 63 56 66 58 56 64 70 82 88 88 88 92 86 80 79 71 59 53 49 48 49 50 44 44 45 50 55 58 61 62 63 67 72 75 80 85
86 87 70 65 59 62 64 65 60 64 78 77 81 91 95 96 94 92 86 83 76 70 58 49 50 52 52 52 50 46 48 48 49 50 53 57 63 69 74 80 84 88 92 92
83 80 73 72 70 65 69 68 68 74 77 84 86 89 88 89 90 88 82 77 74 72 54 54 52 52 51 49 50 51 50 50 53 57 62 65 69 72 77 81 85 89 93 89

GFSNW_prec_cthk_144.txt.gz
RH
56 53 57 66 72 66 57 69 68 77 63 68 70 74 72 70 62 56 59 63 62 57 55 54 52 36 34 35 32 32 35 35 28 31 27 29 29 31 38 54 54 63 70 53
76 63 56 55 69 78 63 73 69 68 87 91 88 86 80 70 69 64 61 57 57 58 57 53 42 38 36 33 29 30 33 31 27 28 39 44 48 47 47 52 57 53 65 52
88 79 66 59 53 70 73 76 80 75 74 67 70 70 68 70 70 67 59 56 52 46 45 43 41 38 39 37 30 25 22 23 29 26 29 35 41 42 44 46 60 48 45 39
88 90 78 71 58 71 72 68 74 61 76 78 81 86 86 85 79 65 56 63 55 48 48 44 46 42 45 38 33 32 29 30 36 37 35 37 38 39 35 34 36 50 33 39
95 91 83 74 71 68 80 52 54 58 56 62 70 84 86 75 57 56 60 56 50 47 43 43 42 47 41 35 29 28 36 45 46 46 32 39 40 40 38 37 37 42 39 34
98 98 93 85 80 70 73 63 59 59 53 55 63 64 65 56 58 62 60 54 53 55 47 51 45 40 37 33 34 42 43 39 40 37 33 38 41 42 40 34 36 43 48 50
96 97 98 95 79 80 75 67 66 61 69 64 63 58 56 57 66 64 59 65 63 57 55 51 46 42 38 39 41 35 32 33 39 39 39 52 40 33 33 39 44 59 60 62
95 95 98 97 83 82 85 86 73 70 78 83 88 88 85 80 74 76 66 61 63 62 56 52 51 52 44 32 26 25 33 36 47 54 47 42 40 40 40 48 56 68 72 72
99 95 96 94 92 84 88 75 77 73 79 81 81 79 77 75 75 72 65 61 55 55 50 44 42 35 34 37 38 35 39 44 58 57 65 54 42 45 50 57 68 79 81 82
97 98 98 97 96 92 84 79 80 85 74 72 65 70 67 60 62 58 54 58 55 49 48 48 46 39 37 37 34 44 49 57 63 58 59 50 43 46 54 71 81 82 83 83
90 96 99 99 93 92 87 94 83 93 81 83 75 70 76 73 67 67 66 64 66 60 58 48 45 36 38 36 34 38 44 51 59 53 59 61 48 54 61 72 79 80 85 88
96 98 94 96 92 97 95 95 96 95 97 93 84 78 76 73 76 72 68 70 62 57 51 48 48 51 48 44 51 42 48 41 49 56 53 59 54 55 62 70 79 85 91 89
99 94 96 98 98 98 94 91 88 90 88 92 86 80 77 72 66 61 63 58 64 63 60 68 69 62 57 55 53 54 53 49 53 56 52 51 55 61 65 78 88 90 93 93
98 97 98 98 94 88 87 86 95 91 84 82 81 72 77 74 69 66 64 63 62 61 68 67 66 61 60 58 61 61 62 65 59 58 59 61 59 62 73 86 92 87 84 80
91 88 91 91 89 91 88 85 80 87 86 88 77 68 59 62 70 66 80 74 69 68 63 63 64 60 64 63 62 60 59 56 61 62 63 66 67 70 76 87 90 83 78 79
83 79 79 79 77 73 73 73 62 64 73 86 90 76 71 61 64 70 76 77 81 82 78 71 75 65 65 58 48 49 47 50 58 59 66 67 68 76 81 89 89 78 73 72
83 80 73 66 63 59 56 48 48 57 65 76 95 84 80 81 78 76 80 82 89 90 88 87 80 73 69 61 50 46 44 49 56 60 68 69 75 80 86 91 88 76 75 72
83 76 73 76 72 63 54 48 43 49 74 82 97 90 83 81 83 88 86 87 88 85 82 78 79 76 69 56 36 30 43 50 55 63 68 74 77 84 89 90 79 73 70 60
73 77 77 80 76 64 58 55 53 56 75 90 90 80 81 82 82 84 88 90 94 86 79 77 80 71 66 39 31 32 51 56 64 68 67 73 78 80 81 81 77 69 55 54
73 74 73 76 67 62 66 68 67 72 87 91 82 77 82 78 79 75 82 88 87 88 75 76 74 55 44 38 33 34 47 63 64 67 69 75 82 81 74 77 70 55 55 58
86 89 83 73 76 84 82 89 87 95 96 82 76 72 79 77 76 72 83 88 92 84 70 73 63 51 44 41 45 45 56 59 59 67 76 82 87 80 76 67 54 55 58 58
90 90 82 90 97 98 98 97 91 89 83 76 73 72 70 72 69 64 92 93 85 79 88 87 65 43 52 58 57 57 57 60 67 78 85 88 87 80 62 46 51 55 58 63
99 94 93 91 91 97 93 91 84 78 69 67 61 63 63 67 51 60 87 91 90 86 85 72 50 60 61 61 58 59 61 65 72 79 83 84 81 58 45 52 57 60 62 65
84 81 87 81 82 81 78 70 63 54 50 51 58 74 62 57 59 76 84 78 94 90 83 57 67 68 66 64 63 67 65 67 74 80 76 60 48 47 53 56 59 61 63 66
77 72 66 60 60 59 52 47 50 53 58 64 74 82 77 75 91 82 78 89 83 68 61 68 71 69 64 65 64 69 72 68 61 55 49 45 49 52 56 59 61 62 64 66
78 80 66 47 44 57 55 51 51 53 62 68 75 98 97 90 80 86 73 66 63 61 66 68 73 74 69 62 63 63 57 54 50 45 47 52 56 57 58 59 60 62 66 70
89 81 66 50 47 42 64 64 62 67 70 71 78 85 75 71 73 65 60 65 67 68 68 75 81 74 62 63 64 62 54 48 49 52 53 54 55 55 56 59 62 67 71 75

GFSNW_prec_cthk_147.txt.gz
RH
75 74 62 55 58 64 76 80 77 68 70 87 88 84 76 79 74 64 57 57 59 55 60 49 60 56 51 43 37 35 42 45 39 37 45 37 29 26 30 44 43 51 73 59
73 81 80 71 59 58 67 79 80 78 76 81 73 73 76 88 80 72 70 64 63 64 65 71 63 55 52 46 35 34 43 30 37 31 36 39 39 42 46 50 47 50 61 50
75 78 88 81 73 62 68 75 90 88 85 76 82 86 87 92 86 79 72 66 63 66 66 64 62 58 54 39 31 32 28 28 33 33 30 37 41 44 51 52 57 48 40 39
78 76 90 88 81 67 73 81 78 73 83 87 79 77 76 69 67 66 66 64 62 64 66 60 53 45 50 39 39 32 37 39 31 31 28 28 28 36 40 38 32 41 29 38
81 80 93 90 85 83 81 73 67 72 73 76 93 97 89 93 88 80 63 61 69 63 57 48 44 46 53 45 46 42 41 45 41 43 30 33 37 41 33 32 33 36 37 38
84 92 92 99 91 86 90 72 68 75 68 82 88 79 76 76 81 79 83 81 66 61 52 55 65 61 59 52 43 45 44 43 46 44 42 42 42 41 38 32 36 43 50 46
93 97 96 98 98 95 84 83 68 66 70 66 80 81 89 93 97 92 81 63 55 61 57 57 56 47 46 44 42 37 44 45 49 50 47 49 40 38 33 38 38 46 50 58
96 96 98 98 99 98 83 83 79 71 73 66 73 73 73 86 83 81 64 57 68 66 60 58 56 51 49 45 39 40 39 46 45 51 43 40 44 45 50 44 36 43 55 69
93 98 99 94 98 98 95 87 79 70 71 78 83 79 73 71 76 78 74 70 70 70 70 63 63 54 56 53 57 44 39 42 46 52 54 50 49 49 50 42 42 62 74 81
94 98 99 97 98 98 97 90 78 79 77 83 80 85 79 80 90 83 81 80 74 64 63 65 55 51 44 50 52 62 47 44 50 53 55 56 48 55 47 50 70 80 75 78
87 95 97 97 98 98 96 80 97 93 97 96 93 82 80 84 82 82 80 78 73 69 62 56 54 55 51 50 41 42 53 56 59 59 64 60 56 52 50 53 58 65 72 82
94 92 97 99 95 96 90 89 96 97 91 98 85 76 79 78 76 74 78 67 69 59 55 57 57 64 60 53 54 41 44 49 53 56 59 58 59 54 56 55 57 67 79 87
88 94 98 99 99 93 86 87 86 87 91 98 97 88 76 69 70 72 82 80 81 85 74 75 75 73 64 59 50 49 52 44 51 51 49 47 46 54 54 57 60 70 82 90
95 98 99 98 99 94 87 86 91 94 93 97 95 90 85 78 71 67 65 78 72 76 84 79 71 72 61 58 58 65 60 64 65 64 59 55 55 60 68 67 68 69 86 88
97 98 90 94 98 99 99 98 97 90 89 90 92 82 82 81 78 75 65 59 65 78 76 76 73 66 65 61 58 53 55 57 67 63 62 59 65 60 62 62 68 75 81 86
99 98 98 98 98 98 97 93 80 75 82 75 77 77 72 74 77 79 70 61 61 76 79 74 66 60 61 60 55 53 59 58 51 47 48 55 53 57 62 66 71 81 89 89
98 98 98 95 93 94 87 81 73 77 75 78 71 70 70 70 72 69 68 71 76 78 78 67 68 70 71 65 62 60 55 53 49 48 52 50 55 63 69 74 78 86 90 86
93 92 93 95 91 87 78 67 63 63 61 62 71 75 74 76 77 79 75 76 78 74 71 66 69 70 71 65 59 56 52 42 38 39 45 48 59 68 72 75 80 87 86 84
86 82 78 75 75 73 73 62 54 48 56 62 56 58 70 77 83 89 90 90 90 78 75 71 71 68 60 50 52 52 46 38 37 48 57 64 68 71 68 71 81 82 85 79
80 76 72 72 74 71 69 74 65 60 64 59 55 45 65 71 76 81 78 81 81 75 72 77 76 59 51 52 47 45 43 39 40 53 67 73 69 69 70 78 85 80 79 69
84 78 77 71 67 72 78 72 67 69 63 50 42 44 55 72 80 87 87 86 73 76 63 75 63 53 46 44 41 41 41 44 44 52 66 70 66 70 79 88 84 81 71 61
76 73 75 78 81 76 72 76 72 68 59 61 44 44 50 79 84 90 94 85 80 81 84 91 66 62 62 60 59 59 59 58 54 55 61 68 75 85 91 92 85 68 54 56
71 71 76 74 74 78 76 65 75 61 68 76 66 62 80 83 83 86 84 91 79 73 86 77 59 60 66 65 62 60 56 58 62 68 71 77 87 93 94 88 65 50 57 61
76 79 80 76 92 88 87 75 79 78 84 83 74 81 79 77 82 76 77 65 69 77 80 74 71 75 73 60 57 56 54 62 68 68 74 81 89 87 71 53 54 58 60 63
85 78 76 70 81 70 73 79 85 82 74 75 80 79 76 79 79 68 66 76 72 59 54 66 78 71 66 71 69 64 68 69 75 77 77 77 70 58 53 55 58 61 63 65
83 67 77 67 63 76 70 74 82 80 61 63 70 74 85 81 75 73 60 54 60 60 63 75 63 67 64 69 73 67 68 68 64 63 63 58 52 53 55 59 61 63 63 64
89 88 88 87 70 60 54 55 54 54 62 62 64 76 88 91 82 73 73 64 57 66 70 63 61 61 65 80 73 64 66 65 58 53 51 55 58 59 60 59 60 61 62 64

GFSNW_prec_cthk_153.txt.gz
RH
40 48 53 63 67 69 72 69 63 56 65 91 91 80 70 67 65 65 69 73 76 74 74 70 71 66 64 53 57 55 56 61 58 52 52 52 47 45 49 73 64 72 73 61
40 50 59 67 73 83 83 80 65 56 71 74 72 68 69 72 65 66 75 74 69 73 77 80 76 65 67 62 61 58 59 65 70 55 47 48 40 44 48 51 59 63 67 55
37 44 55 72 79 88 95 93 87 74 74 73 66 63 63 72 71 68 68 76 79 78 81 78 76 79 73 70 66 60 61 63 60 57 46 42 44 49 57 63 90 79 76 54
34 36 43 57 76 88 98 96 97 79 76 65 66 72 61 61 60 67 72 74 90 82 91 83 85 78 77 74 70 62 63 62 54 49 44 43 48 50 53 56 59 63 47 37
35 34 36 42 67 76 96 95 95 95 72 66 70 71 61 58 57 71 74 85 86 88 90 72 76 71 76 70 71 69 64 72 64 59 47 38 34 38 37 34 32 31 30 35
37 31 36 36 46 74 92 94 87 98 93 80 81 67 57 49 60 72 85 97 94 98 94 85 79 74 71 72 63 63 61 68 71 68 50 50 54 48 45 40 38 39 45 38
40 34 31 35 36 55 79 89 93 98 98 94 76 71 69 66 57 68 81 85 92 86 89 90 81 71 66 64 69 69 64 61 65 69 61 72 51 38 38 41 46 43 47 53
48 44 38 32 34 37 68 96 97 98 95 94 84 73 73 71 78 81 73 86 89 93 94 97 91 83 74 68 68 70 72 72 77 80 77 58 47 46 46 53 50 55 59 63
56 51 44 41 38 36 50 84 99 92 98 89 82 72 69 84 93 90 86 85 88 88 98 96 93 89 76 72 64 63 66 69 73 77 70 65 48 44 53 57 66 63 60 59
66 61 52 53 47 42 41 74 94 99 98 85 85 73 67 83 97 96 92 88 91 93 98 91 77 69 62 65 61 59 62 66 65 63 68 59 46 38 53 65 66 68 59 52
78 71 61 53 53 46 39 57 93 99 95 94 88 68 65 69 80 92 92 98 86 89 87 84 76 69 63 62 59 66 75 82 74 74 77 74 47 44 55 54 61 60 55 53
86 85 68 58 55 49 43 66 92 98 99 97 89 76 71 75 92 90 89 85 82 76 75 70 67 71 69 63 65 60 77 71 82 74 75 68 70 66 66 69 75 63 56 54
87 88 71 59 53 47 42 83 98 99 99 96 87 83 86 86 82 77 74 80 80 81 77 78 75 71 69 73 68 63 63 67 75 72 69 69 79 75 72 75 67 67 62 58
80 76 66 56 49 48 58 91 98 99 96 92 88 84 76 71 69 68 68 72 77 81 80 82 82 80 71 71 71 73 73 75 76 72 72 65 68 66 61 58 55 63 62 57
72 65 57 50 46 52 91 99 97 98 94 90 79 74 72 75 72 65 63 70 83 85 81 82 82 78 80 75 73 72 72 81 84 83 73 72 65 63 67 70 70 70 61 64
55 51 44 42 50 86 98 99 99 99 94 88 91 89 87 79 71 68 60 62 67 72 75 79 80 83 88 90 83 66 67 68 63 62 58 55 55 56 51 53 55 62 61 65
50 57 56 81 89 98 98 92 90 96 92 83 81 78 75 73 71 68 69 69 70 71 73 76 73 72 80 77 68 60 58 49 40 40 40 40 38 41 45 49 58 57 70 59
78 96 97 99 99 99 99 99 98 90 84 71 74 79 73 72 74 76 71 73 73 71 74 74 73 71 66 67 52 43 35 35 38 39 41 42 44 42 45 50 53 61 64 61
97 98 98 98 99 98 98 98 95 85 69 69 71 74 79 60 59 55 60 59 66 68 73 73 74 68 61 43 35 32 32 38 39 40 43 45 48 45 42 43 50 50 58 68
94 90 95 98 98 98 95 91 84 72 68 67 71 63 63 54 60 66 67 69 70 71 67 70 71 59 45 42 45 45 44 46 48 48 48 51 48 47 51 47 67 70 73 75
91 90 93 94 92 89 84 85 73 61 59 55 55 50 50 54 62 70 71 77 68 66 54 65 60 52 46 49 55 61 61 57 55 53 49 46 48 50 49 50 56 77 81 76
74 77 81 78 76 73 75 80 75 69 59 50 44 42 45 51 52 61 72 76 74 67 61 68 64 64 65 64 71 80 86 69 53 59 64 63 56 47 48 54 57 72 79 76
73 71 73 71 71 72 69 75 69 60 51 46 36 38 38 46 48 55 65 75 68 56 64 65 61 66 70 75 87 84 66 53 46 46 48 53 58 66 68 70 76 82 84 90
49 51 58 62 59 54 51 51 48 39 35 33 35 40 44 47 61 72 75 75 72 71 67 55 58 68 69 80 71 66 60 60 60 58 58 59 59 66 79 88 90 87 95 98
54 50 54 49 47 45 41 39 37 36 37 38 43 47 50 61 82 85 79 80 76 71 59 48 59 64 72 76 74 69 67 67 63 67 68 74 76 84 87 87 90 97 96 79
52 49 48 47 46 48 48 50 55 57 53 68 68 84 94 96 97 85 80 79 73 64 59 57 58 72 76 72 72 71 69 68 65 75 75 73 73 77 82 87 88 80 67 63
52 57 55 55 61 66 60 57 62 70 83 94 96 97 91 81 88 76 72 69 63 63 60 59 64 77 80 76 69 67 68 69 75 83 76 75 75 75 75 72 68 63 63 65

GFSNW_prec_cthk_156.txt.gz
RH
34 40 48 53 56 67 72 67 65 59 62 73 88 89 70 64 65 71 72 73 72 74 76 80 74 63 61 63 60 59 56 59 57 55 50 51 54 57 58 70 61 68 67 62
30 37 45 52 60 68 77 77 68 65 71 66 62 58 69 80 79 77 81 75 76 77 77 82 84 71 65 70 70 65 61 65 68 61 58 57 55 55 56 60 64 63 72 67
31 32 39 48 60 71 81 88 89 76 85 69 56 53 52 57 59 74 80 85 86 86 81 75 78 74 76 75 73 71 68 67 64 66 63 60 61 58 61 66 79 76 75 63
41 38 37 44 59 70 85 91 98 92 91 89 75 73 60 54 51 54 70 79 75 82 88 80 82 74 74 80 75 71 73 72 63 62 62 60 55 54 55 56 59 68 61 64
39 41 41 41 46 66 87 96 98 95 94 90 93 92 66 58 50 59 51 68 65 79 79 77 86 85 91 86 82 82 77 81 72 75 66 62 56 53 51 52 54 58 51 43
38 37 39 36 46 57 76 90 93 99 95 87 95 77 65 65 71 64 54 62 71 76 78 87 87 97 92 93 84 80 76 82 79 71 67 68 70 61 58 47 36 39 48 43
37 35 38 44 39 49 57 72 92 99 95 98 78 81 77 71 70 70 69 67 66 76 90 97 96 97 94 91 80 70 71 73 75 74 71 79 53 51 47 47 48 46 45 53
35 32 34 41 43 46 52 56 81 98 95 93 89 92 92 86 82 78 76 75 77 86 91 96 99 98 92 77 68 72 68 74 79 82 73 61 56 52 51 55 49 50 53 58
33 39 43 50 49 42 47 43 57 82 97 90 91 94 94 91 84 81 75 81 88 88 86 98 98 97 92 79 70 65 64 68 81 87 80 73 55 47 43 49 55 52 50 58
48 48 54 59 62 59 52 45 48 60 87 87 96 85 90 89 88 80 89 93 92 93 95 94 97 94 88 82 69 68 75 84 83 83 75 61 52 54 54 61 55 58 68 72
61 61 63 66 72 64 64 52 51 51 63 81 89 92 81 91 83 79 80 99 99 98 98 97 95 85 75 74 69 71 71 80 81 79 78 69 50 48 50 47 53 58 54 51
65 64 72 77 81 74 74 64 55 50 55 73 95 95 83 85 79 78 89 89 86 96 93 85 79 82 80 74 74 63 73 68 74 70 65 62 62 66 66 66 64 65 73 66
67 65 76 84 89 88 78 70 60 58 50 70 86 86 89 84 79 75 84 92 87 84 79 81 82 75 71 71 72 67 64 63 68 70 65 63 66 67 69 77 81 80 79 76
67 66 81 90 95 94 78 67 56 58 65 69 81 94 98 90 82 78 80 75 85 81 78 77 76 73 69 73 71 71 72 73 74 74 71 69 70 71 73 75 79 78 73 65
64 70 79 92 95 90 76 67 56 55 87 88 91 98 95 87 72 74 70 66 66 70 74 83 83 74 72 73 71 67 70 73 81 83 76 77 82 76 82 84 78 72 64 63
57 69 83 87 88 84 76 69 58 64 98 98 99 98 92 84 73 66 63 57 59 64 73 81 75 70 71 76 74 62 63 60 62 67 72 74 72 78 76 76 73 68 62 52
61 69 77 80 73 70 58 64 53 67 98 98 98 96 87 79 74 67 62 57 58 59 62 64 69 74 77 72 65 57 59 61 66 68 67 65 62 61 59 54 51 49 48 49
62 66 63 64 65 66 66 80 84 88 98 97 95 92 84 75 64 62 61 65 63 60 62 64 66 70 76 68 56 53 51 53 56 56 52 50 46 46 44 44 45 45 47 54
53 53 61 79 89 81 80 98 99 98 99 89 82 70 65 57 59 59 62 65 69 58 57 57 61 66 67 56 51 47 46 48 44 41 43 44 43 40 40 42 45 47 49 50
73 99 96 99 99 99 99 99 98 92 87 80 69 55 57 55 60 65 59 58 57 55 49 51 58 54 47 46 43 41 42 47 50 47 42 42 44 43 46 49 50 49 48 54
96 98 98 99 96 98 95 92 84 77 70 63 61 58 60 54 57 59 58 63 60 61 52 57 54 50 43 47 52 45 49 55 60 60 54 53 49 45 50 52 52 52 54 64
91 90 93 93 90 85 82 81 73 66 58 60 69 68 57 57 60 64 68 68 62 60 53 61 52 39 51 58 60 66 70 70 75 64 56 53 57 60 55 47 46 49 54 60
85 85 80 76 78 78 80 81 68 62 55 58 60 62 58 59 58 59 60 62 59 51 55 52 42 33 50 68 66 67 74 70 62 58 53 46 44 49 56 61 62 61 67 80
67 65 70 64 66 62 63 67 69 63 63 59 55 58 60 62 62 59 58 54 56 61 60 46 40 47 53 70 69 67 69 67 63 61 60 54 53 51 53 59 63 76 90 94
54 51 58 55 55 56 59 63 63 61 59 55 55 52 52 58 59 59 60 66 65 60 52 49 52 59 70 77 75 69 68 70 71 67 64 61 60 64 67 74 83 91 91 91
46 46 51 49 46 48 44 42 41 43 43 44 43 49 51 53 55 63 67 66 64 67 69 73 78 81 77 77 71 66 67 64 64 64 64 65 70 73 77 84 92 95 94 95
52 57 52 51 51 55 48 45 48 50 54 56 59 68 73 88 88 92 84 74 75 81 84 79 73 70 70 70 66 69 67 65 66 70 71 77 83 75 77 77 81 83 84 81

GFSNW_prec_cthk_162.txt.gz
RH
36 38 46 52 60 66 75 85 92 80 83 92 94 75 63 58 58 63 75 72 74 77 83 89 85 74 76 75 84 82 76 77 69 61 59 57 52 53 58 68 64 72 74 61
34 32 35 45 55 64 67 77 89 82 89 85 74 64 58 63 63 66 76 72 71 73 76 83 77 70 61 72 79 94 88 87 79 60 56 62 62 55 58 62 66 73 78 62
39 39 39 41 50 60 70 81 87 89 91 87 72 69 61 58 47 54 66 71 75 82 88 86 88 79 77 79 81 85 92 97 97 86 69 71 67 65 65 64 77 74 68 62
47 44 42 41 48 59 77 91 92 91 96 89 97 92 77 68 62 57 59 61 55 62 78 77 83 77 84 84 85 85 91 98 98 96 87 86 86 68 67 69 69 75 57 75
54 50 45 49 46 60 74 93 93 94 96 91 99 99 96 80 71 78 71 72 67 73 76 69 64 74 76 81 81 84 84 93 89 89 81 86 88 82 74 68 66 70 65 60
61 58 51 54 52 50 61 67 85 98 85 98 98 98 85 79 90 93 85 85 86 76 61 68 65 72 68 77 85 88 95 98 93 87 76 85 97 77 83 73 65 67 64 48
71 63 63 60 59 57 59 63 65 75 92 94 95 87 86 88 93 94 91 92 90 70 81 80 77 71 73 76 72 82 88 93 98 93 96 96 68 63 67 70 68 61 52 48
90 82 74 73 70 67 68 65 71 83 84 83 81 81 85 86 89 98 90 85 86 88 91 93 97 94 85 64 63 70 81 95 98 98 97 87 72 66 68 70 62 60 55 50
97 91 83 74 70 68 69 70 74 73 76 66 76 98 93 85 89 93 86 86 87 93 97 97 93 94 93 88 77 69 77 90 97 98 96 93 65 56 58 58 54 53 53 50
97 96 91 82 77 74 73 67 71 79 76 57 65 77 90 96 96 96 91 91 92 96 98 98 96 85 85 94 83 82 84 89 93 98 96 84 67 56 54 59 56 56 48 48
93 94 92 84 76 70 69 63 68 72 70 63 60 60 63 76 93 98 97 97 92 98 98 96 89 94 91 88 77 77 83 89 93 98 97 94 68 61 53 61 59 48 48 48
98 98 96 84 76 68 66 58 58 69 79 66 62 56 56 62 63 81 90 97 99 98 99 95 95 98 94 82 80 76 89 88 93 92 90 79 71 65 53 55 57 55 51 49
98 98 93 80 69 63 65 61 67 79 79 66 58 52 50 52 54 65 81 87 92 98 95 96 98 95 89 90 84 78 77 84 94 90 76 75 70 63 60 60 60 60 58 63
92 92 83 77 76 74 73 67 72 79 80 73 54 49 44 45 48 48 50 68 88 98 98 99 92 86 79 78 72 73 77 84 83 82 77 72 66 62 61 64 65 64 66 68
98 92 82 80 77 74 78 76 74 84 91 80 70 53 42 45 46 45 46 56 80 98 97 96 93 77 78 76 75 75 73 73 80 80 76 75 70 69 68 65 66 70 72 76
94 84 81 77 72 73 75 85 91 91 94 92 77 50 52 55 53 46 53 58 81 92 94 98 87 84 81 76 73 58 57 56 56 58 59 60 63 70 73 74 77 80 82 84
88 84 74 69 71 72 76 95 89 94 97 97 76 51 59 59 69 65 70 74 85 88 99 93 79 67 66 64 58 46 38 40 47 50 54 56 60 62 65 66 69 70 73 72
88 82 66 75 80 83 84 94 99 98 91 87 72 77 90 94 79 94 98 98 94 95 86 78 64 57 59 53 34 32 31 35 41 47 51 54 57 62 67 67 65 64 63 63
83 71 75 85 89 86 82 92 93 91 98 90 76 84 94 99 98 97 94 89 88 78 75 65 54 54 50 29 27 26 26 33 37 44 53 53 52 54 58 60 62 60 55 52
81 79 75 73 78 86 89 84 86 94 96 92 94 89 98 99 93 94 95 89 87 74 61 55 56 47 32 25 24 25 28 34 41 44 48 53 54 53 49 48 50 51 48 43
69 68 72 76 81 80 83 98 86 80 82 90 84 96 97 98 95 92 83 76 66 58 52 55 50 47 33 22 19 23 27 33 42 50 54 59 65 68 64 59 59 57 53 48
69 74 80 89 99 93 96 97 98 89 75 73 79 79 87 98 92 83 75 62 60 53 52 52 49 34 26 25 24 26 31 46 55 62 68 70 67 57 53 51 50 56 59 47
78 90 97 99 97 98 97 95 90 78 72 72 73 77 94 89 78 71 66 61 59 55 56 50 39 29 27 28 30 39 45 49 56 60 72 70 64 60 59 56 54 49 52 61
97 98 97 92 95 88 73 69 73 70 77 80 81 89 85 75 72 65 61 59 56 58 57 45 37 31 30 33 34 40 46 49 61 73 75 77 74 70 68 65 60 54 48 54
90 80 77 89 79 78 75 69 66 70 80 83 83 81 76 73 65 61 56 60 58 53 49 42 31 31 33 46 57 63 71 76 76 84 80 77 75 72 67 63 59 58 55 54
71 69 70 80 79 77 75 77 77 75 73 72 68 72 69 68 65 63 57 56 51 48 43 29 30 40 53 64 68 72 74 71 72 69 67 67 69 68 64 63 61 62 67 72
52 50 47 45 43 45 48 49 51 54 62 68 69 65 61 63 64 59 56 55 50 38 29 31 44 60 65 69 71 75 72 70 74 75 71 66 68 66 66 69 71 71 79 95

GFSNW_prec_cthk_165.txt.gz
RH
56 52 53 56 62 68 76 85 92 83 90 96 96 86 76 67 64 76 78 78 90 92 86 89 90 80 78 78 81 81 87 94 71 59 57 55 57 58 62 71 68 72 74 66
55 53 49 48 57 70 74 84 89 89 94 98 93 93 84 80 72 73 75 81 79 80 75 81 70 66 63 70 76 80 84 96 91 66 57 61 64 65 65 65 69 74 81 69
52 50 46 42 51 63 75 87 89 87 93 84 88 83 83 80 69 69 74 76 77 77 76 78 79 77 75 81 83 90 97 95 91 90 76 77 79 80 79 76 80 70 70 62
57 57 55 52 49 63 75 92 94 88 92 94 93 91 82 71 70 69 67 65 59 61 70 71 72 69 74 76 78 79 91 98 94 91 93 95 92 90 81 85 78 81 74 69
64 64 60 56 51 59 71 87 94 94 90 93 99 99 97 89 86 85 84 85 72 75 79 74 67 69 71 74 69 73 83 95 90 87 85 90 95 87 78 77 78 77 70 64
68 60 66 61 58 59 68 76 85 98 88 98 97 96 95 95 95 96 84 85 87 92 77 83 72 68 63 60 60 64 75 87 91 90 78 85 93 70 74 72 72 70 71 60
83 67 64 57 64 65 58 67 73 85 95 99 98 93 94 98 96 93 89 91 94 86 92 93 84 78 70 67 60 61 68 76 90 87 86 96 60 58 64 72 71 71 70 68
95 90 78 73 71 70 64 62 65 68 69 70 77 88 91 92 90 91 91 85 87 94 96 98 95 81 78 63 67 70 67 75 81 90 83 78 59 55 64 69 61 73 73 72
98 98 93 82 75 73 77 74 73 73 72 59 63 68 76 80 85 83 74 78 81 92 95 98 95 81 72 63 72 81 87 92 98 91 95 85 50 56 62 69 59 60 63 63
98 98 96 92 87 81 83 82 82 85 83 66 65 65 67 75 94 98 93 90 95 94 96 93 85 80 84 94 86 89 92 96 97 96 96 77 62 70 70 74 61 57 59 59
93 92 98 98 93 84 83 81 82 79 74 65 66 64 62 58 68 79 94 95 98 96 93 96 96 89 86 86 77 81 83 88 87 96 97 91 74 74 80 71 62 56 60 55
82 91 95 97 98 89 85 82 83 83 79 65 61 58 59 62 62 70 80 80 81 84 95 94 98 97 95 87 86 77 87 82 84 91 88 84 89 84 83 73 66 60 58 55
82 92 97 98 98 92 84 82 79 78 71 63 60 51 53 60 60 62 64 62 68 71 81 95 95 94 87 85 76 72 78 82 83 84 87 92 88 87 80 76 70 67 63 57
94 98 98 98 98 93 86 79 80 72 69 65 47 49 48 52 55 55 56 58 62 70 86 90 93 98 93 81 69 65 68 72 76 79 81 84 84 85 81 79 72 69 67 67
93 96 99 98 97 86 88 88 81 81 78 69 60 58 47 46 50 53 54 54 59 65 76 81 97 98 94 82 73 66 71 70 77 75 70 70 72 77 82 80 76 76 73 75
91 94 97 98 88 90 93 92 83 81 83 84 66 49 37 49 48 56 63 58 61 68 72 75 75 83 89 87 73 66 64 62 59 52 49 50 54 62 69 76 77 76 79 82
98 98 97 89 88 88 89 81 76 73 87 95 87 63 39 49 53 60 63 63 63 67 72 72 74 87 96 83 66 41 39 36 34 32 33 37 42 45 55 60 65 69 74 75
97 95 92 92 92 90 81 75 80 93 97 95 90 68 56 56 70 77 75 72 65 71 76 77 88 91 93 73 39 31 25 24 23 24 27 31 33 39 49 56 62 64 65 66
97 96 83 85 85 82 77 75 76 95 98 97 83 69 65 75 92 86 81 81 83 88 84 86 92 91 71 40 27 23 19 20 21 25 28 31 34 37 43 52 51 56 62 64
90 78 68 70 74 82 86 89 81 76 79 85 83 92 96 93 94 98 98 98 98 97 95 95 87 66 40 28 24 20 21 24 26 29 31 36 40 43 43 49 52 52 51 54
67 61 61 65 74 80 80 77 75 68 72 70 69 75 83 96 98 98 96 95 89 82 78 77 70 49 28 23 22 21 24 23 27 31 35 42 54 61 64 70 67 62 59 54
55 59 64 71 75 77 77 75 85 75 71 76 78 79 90 97 97 98 89 85 80 71 67 62 56 35 26 24 26 26 27 32 36 39 41 41 48 69 73 68 61 57 53 52
65 77 78 81 89 98 86 78 76 82 72 75 79 81 88 91 91 92 88 75 65 57 57 52 37 28 27 28 28 30 32 36 40 43 50 51 53 75 79 72 70 65 59 56
78 86 98 98 97 94 87 79 77 83 81 87 91 88 84 87 89 85 76 68 60 59 56 44 34 30 30 29 30 32 35 45 54 56 58 62 70 82 84 81 76 73 70 62
97 96 91 90 91 87 87 84 80 73 76 89 88 86 85 86 80 70 64 63 60 53 44 38 33 34 32 34 38 45 58 64 73 80 79 73 73 79 81 82 83 74 66 63
82 77 76 85 92 85 81 78 75 77 87 91 85 85 81 81 75 67 61 56 53 45 45 40 39 39 38 37 45 56 66 72 72 75 73 70 74 78 74 71 72 68 65 65
58 54 58 59 57 60 62 69 82 84 84 88 81 76 72 72 71 64 61 60 52 49 45 44 47 42 40 41 52 64 73 82 81 77 74 74 75 76 75 69 67 66 69 74

GFSNW_prec_cthk_171.txt.gz
RH
83 80 69 71 74 87 92 98 98 94 96 99 98 96 77 80 76 85 81 85 92 94 97 95 93 89 90 92 84 78 77 74 70 64 61 65 68 64 67 79 77 74 75 65
79 82 82 73 72 74 83 92 96 93 98 98 98 95 91 90 85 83 79 78 82 86 93 98 89 84 82 89 87 92 93 90 80 62 60 61 68 67 65 65 73 87 90 71
79 81 84 79 75 75 77 91 98 90 99 94 95 96 96 98 93 86 84 79 77 79 80 82 90 78 81 84 82 91 89 87 86 75 67 83 91 88 80 88 98 79 73 70
78 73 72 76 83 81 82 90 96 90 96 92 97 89 94 91 92 89 86 83 79 79 83 81 83 79 75 73 76 83 90 97 88 87 73 72 68 72 72 72 76 86 75 76
88 81 63 61 77 73 84 86 84 89 81 85 91 86 92 87 83 84 93 86 79 80 80 81 70 68 67 67 67 70 75 83 73 74 62 65 68 66 64 65 69 70 67 66
97 86 74 73 61 72 78 88 91 90 76 85 94 93 87 84 91 85 94 94 86 78 78 80 82 79 73 73 75 75 78 81 78 79 57 62 72 62 58 59 55 55 60 54
97 93 82 73 80 70 73 88 92 95 97 91 86 91 89 96 94 94 98 94 95 87 94 87 80 78 68 70 66 70 72 79 76 75 64 84 43 43 45 46 49 49 56 60
95 97 90 76 75 78 80 80 90 96 90 86 95 95 96 93 84 88 94 94 88 95 94 96 86 71 71 60 62 69 68 71 80 90 79 62 50 34 47 51 53 49 56 61
97 98 97 89 74 72 73 87 81 86 90 87 85 95 94 90 90 90 90 93 87 88 90 94 93 75 73 71 68 65 71 66 80 82 83 72 39 57 59 65 61 66 65 63
92 97 98 98 89 76 71 82 89 85 84 77 77 76 77 80 81 81 79 85 81 89 99 92 86 74 65 74 68 67 76 79 89 86 90 78 79 66 64 79 73 76 67 65
73 95 98 98 97 90 80 82 89 82 79 78 81 74 75 77 81 80 82 84 79 80 96 97 93 91 87 82 70 67 62 72 80 78 83 72 75 73 77 85 81 74 71 71
48 81 96 98 99 98 92 88 92 91 83 80 76 76 76 77 80 78 77 77 75 77 90 95 91 89 87 87 77 67 80 73 69 82 84 93 92 82 78 72 73 76 78 88
61 56 86 96 92 98 97 96 99 96 84 70 62 56 57 57 56 60 65 71 76 73 79 85 85 93 84 82 66 81 83 68 70 69 68 72 73 71 65 68 81 86 92 91
80 68 79 88 92 97 98 97 98 97 89 74 64 54 51 49 46 47 54 60 68 72 77 86 88 80 78 73 72 79 87 93 76 71 65 65 71 72 74 70 69 86 88 89
88 82 77 86 87 92 97 98 97 98 96 87 77 63 56 46 46 42 49 60 66 71 76 78 78 75 80 79 75 79 83 78 78 75 67 69 70 73 61 56 59 77 84 82
90 89 87 87 91 96 98 99 95 92 89 89 73 61 56 57 51 51 54 59 68 72 74 75 73 74 76 75 72 71 67 65 63 64 62 57 51 40 32 31 36 41 45 60
92 92 92 93 99 98 98 96 89 88 94 89 77 65 69 61 59 57 52 50 54 73 78 77 74 75 73 71 60 59 56 63 57 61 46 35 34 28 26 28 30 31 32 39
95 94 94 99 99 99 98 91 84 86 90 87 79 63 59 63 64 68 66 67 72 73 69 78 77 70 75 77 57 60 63 61 54 40 29 23 21 20 20 22 24 29 30 33
95 95 98 98 98 97 96 93 87 83 82 85 76 63 70 77 70 73 83 93 89 70 69 62 82 78 62 41 46 55 64 62 38 29 23 21 21 23 22 22 23 26 28 30
96 97 98 98 95 91 87 82 78 78 75 75 59 72 75 80 93 97 91 89 90 89 69 65 73 62 53 53 61 73 63 47 42 33 23 28 28 30 27 28 29 29 36 36
93 89 90 91 85 81 86 82 78 74 69 60 48 49 58 70 91 86 92 95 96 90 82 70 73 61 48 53 62 76 65 49 35 22 21 24 26 29 32 32 35 37 39 43
82 80 76 74 74 79 77 73 68 72 62 57 66 69 74 77 88 92 92 92 96 96 89 93 81 76 65 65 63 72 63 45 27 22 27 30 32 34 37 42 47 54 62 60
63 58 60 72 71 80 76 73 72 77 80 84 93 95 97 94 96 98 98 97 96 83 96 91 77 72 63 61 64 56 38 27 24 25 28 33 37 41 42 49 58 66 68 79
70 70 72 75 85 81 82 83 84 88 89 88 90 94 98 98 98 98 97 92 88 95 90 77 79 70 62 50 43 36 28 23 26 32 37 40 40 53 57 61 70 73 69 77
86 85 92 90 89 95 94 96 97 94 93 94 95 95 97 98 97 90 86 86 86 78 72 73 65 51 43 38 31 31 33 35 35 36 39 41 52 68 74 73 70 70 70 74
77 79 80 85 94 98 97 97 97 98 94 92 94 98 94 94 92 83 83 69 62 56 58 53 46 41 34 32 34 38 38 38 36 38 40 48 65 85 87 78 68 66 70 78
64 65 70 64 62 61 67 76 91 95 98 98 94 90 84 81 81 81 76 74 66 61 55 48 46 46 45 44 46 47 45 43 38 40 44 59 78 92 90 81 71 69 72 76